Date String (YYYY-MM-DD hh:mm:ss) UTC,Instrument flags,Ambient pressure (hPa),Sample flow (lpm),Bypass flow (lpm),Sample temperature (°C),Ambient temperature (°C),ASC tube jacket temperature (°C),LED temperature (°C),Box temperature (°C),Sample RH (%),Span deviation,Mass concentration (μg/m³),Mass concentration (μg/m³),Mass concentration (μg/m³)
DateTimeUTC,F1_M11,P_M11,Q1_M11,Q2_M11,T1_M11,T2_M11,T3_M11,T4_M11,T5_M11,U1_M11,ZSPAN_M11,X2_M11,X0_M11,X1_M11
2023-02-04 22:00:00,,0824.2,4.96,0.00,24.1,22.6,00.0,33.0,25.9,08.8,0000.0,0000.93,0003.63,0000.51
2023-02-04 22:01:00,,0824.2,5.01,0.00,24.1,22.6,00.0,33.0,25.9,08.9,0000.0,0000.91,0003.17,0000.50
2023-02-04 22:02:00,,0824.2,5.03,0.00,24.1,22.6,00.0,33.0,25.9,09.0,0000.0,0000.93,0003.21,0000.50
2023-02-04 22:03:00,,0824.2,4.97,0.00,24.1,22.6,00.0,33.0,25.9,08.8,0000.0,0000.91,0003.14,0000.49
2023-02-04 22:04:00,,0824.2,4.99,0.00,24.1,22.6,00.0,33.0,25.9,08.9,0000.0,0000.89,0002.92,0000.48
2023-02-04 22:05:00,,0824.3,5.02,0.00,24.1,22.6,00.0,33.0,25.9,08.7,0000.0,0000.93,0002.72,0000.48
2023-02-04 22:06:00,,0824.3,5.00,0.00,24.1,22.6,00.0,32.9,25.8,09.1,0000.0,0000.92,0002.72,0000.48
2023-02-04 22:07:00,,0824.2,4.97,0.00,24.1,22.6,00.0,32.9,25.8,09.1,0000.0,0000.92,0002.69,0000.47
2023-02-04 22:08:00,,0824.2,5.03,0.00,24.1,22.6,00.0,32.9,25.9,08.6,0000.0,0000.94,0002.24,0000.47
2023-02-04 22:09:00,,0824.2,5.01,0.00,24.1,22.6,00.0,32.9,25.9,08.8,0000.0,0000.93,0002.37,0000.47
2023-02-04 22:10:00,,0824.2,4.96,0.00,24.1,22.5,00.0,32.9,25.8,08.8,0000.0,0000.89,0002.32,0000.45
2023-02-04 22:11:00,,0824.2,5.02,0.00,24.0,22.5,00.0,32.9,25.8,08.5,0000.0,0000.85,0002.21,0000.44
2023-02-04 22:12:00,,0824.3,5.01,0.00,24.0,22.5,00.0,32.9,25.8,08.7,0000.0,0000.87,0002.25,0000.44
2023-02-04 22:13:00,,0824.3,4.97,0.00,24.0,22.5,00.0,32.9,25.7,09.2,0000.0,0000.89,0002.48,0000.44
2023-02-04 22:14:00,,0824.3,5.02,0.00,24.0,22.5,00.0,32.9,25.7,08.9,0000.0,0000.94,0002.73,0000.44
2023-02-04 22:15:00,,0824.3,5.01,0.00,24.0,22.5,00.0,32.9,25.7,08.7,0000.0,0000.94,0002.65,0000.45
2023-02-04 22:16:00,,0824.3,4.96,0.00,24.0,22.5,00.0,32.9,25.7,08.5,0000.0,0000.92,0002.45,0000.44
2023-02-04 22:17:00,,0824.4,5.02,0.00,24.0,22.5,00.0,32.9,25.7,08.9,0000.0,0000.91,0002.39,0000.44
2023-02-04 22:18:00,,0824.3,5.02,0.00,24.0,22.5,00.0,32.9,25.7,08.7,0000.0,0000.89,0002.36,0000.45
2023-02-04 22:19:00,,0824.2,4.99,0.00,24.0,22.5,00.0,32.9,25.7,08.6,0000.0,0000.86,0002.28,0000.45
2023-02-04 22:20:00,,0824.4,4.98,0.00,24.0,22.5,00.0,32.9,25.7,08.6,0000.0,0000.88,0002.09,0000.45
2023-02-04 22:21:00,,0824.4,5.02,0.00,24.0,22.5,00.0,32.9,25.7,09.0,0000.0,0000.93,0002.48,0000.46
2023-02-04 22:22:00,,0824.3,4.99,0.00,24.0,22.5,00.0,32.9,25.7,09.1,0000.0,0000.94,0002.63,0000.47
2023-02-04 22:23:00,,0824.4,4.98,0.00,24.0,22.5,00.0,32.8,25.7,09.1,0000.0,0000.95,0002.67,0000.47
2023-02-04 22:24:00,,0824.4,5.03,0.00,24.0,22.5,00.0,32.8,25.7,09.2,0000.0,0000.92,0002.56,0000.47
2023-02-04 22:25:00,,0824.3,5.01,0.00,24.0,22.5,00.0,32.8,25.6,09.1,0000.0,0000.87,0002.78,0000.48
2023-02-04 22:26:00,,0824.3,4.96,0.00,24.0,22.4,00.0,32.8,25.7,08.6,0000.0,0000.88,0003.17,0000.47
2023-02-04 22:27:00,,0824.3,5.03,0.00,24.0,22.4,00.0,32.8,25.6,08.7,0000.0,0000.90,0003.56,0000.47
2023-02-04 22:28:00,,0824.3,4.98,0.00,23.9,22.4,00.0,32.8,25.6,08.6,0000.0,0000.93,0003.67,0000.48
2023-02-04 22:29:00,,0824.3,5.00,0.00,23.9,22.4,00.0,32.8,25.7,09.3,0000.0,0000.93,0003.67,0000.48
2023-02-04 22:30:00,,0824.2,5.03,0.00,23.9,22.4,00.0,32.8,25.6,08.8,0000.0,0000.94,0003.68,0000.48
2023-02-04 22:31:00,,0824.2,4.98,0.00,23.9,22.4,00.0,32.8,25.6,08.5,0000.0,0000.95,0003.69,0000.48
2023-02-04 22:32:00,,0824.2,5.00,0.00,23.9,22.4,00.0,32.8,25.6,09.0,0000.0,0000.94,0003.28,0000.46
2023-02-04 22:33:00,,0824.2,5.02,0.00,23.9,22.4,00.0,32.8,25.6,08.4,0000.0,0000.94,0003.10,0000.47
2023-02-04 22:34:00,,0824.2,4.99,0.00,23.9,22.4,00.0,32.8,25.6,08.7,0000.0,0000.91,0003.02,0000.46
2023-02-04 22:35:00,,0824.2,5.00,0.00,23.9,22.4,00.0,32.8,25.6,09.0,0000.0,0000.91,0002.91,0000.46
2023-02-04 22:36:00,,0824.0,5.03,0.00,23.9,22.4,00.0,32.8,25.6,09.2,0000.0,0000.93,0002.47,0000.47
2023-02-04 22:37:00,,0824.0,4.97,0.00,23.9,22.3,00.0,32.8,25.6,08.8,0000.0,0000.96,0002.07,0000.48
2023-02-04 22:38:00,,0824.1,5.00,0.00,23.9,22.3,00.0,32.8,25.5,09.0,0000.0,0000.97,0001.88,0000.49
2023-02-04 22:39:00,,0823.9,5.03,0.00,23.9,22.3,00.0,32.8,25.5,09.4,0000.0,0000.99,0002.02,0000.50
2023-02-04 22:40:00,,0824.0,4.96,0.00,23.9,22.3,00.0,32.8,25.6,08.6,0000.0,0001.04,0002.24,0000.51
2023-02-04 22:41:00,,0824.0,5.03,0.00,23.8,22.3,00.0,32.8,25.5,08.8,0000.0,0001.02,0002.21,0000.50
2023-02-04 22:42:00,,0824.1,5.01,0.00,23.8,22.3,00.0,32.7,25.5,08.8,0000.0,0001.00,0002.14,0000.50
2023-02-04 22:43:00,,0823.9,4.95,0.00,23.8,22.3,00.0,32.7,25.5,08.9,0000.0,0001.01,0002.14,0000.51
2023-02-04 22:44:00,,0824.0,5.04,0.00,23.8,22.2,00.0,32.7,25.5,08.6,0000.0,0001.01,0002.58,0000.51
2023-02-04 22:45:00,,0824.0,4.99,0.00,23.8,22.2,00.0,32.7,25.5,08.8,0000.0,0001.02,0003.38,0000.51
2023-02-04 22:46:00,,0824.1,4.99,0.00,23.8,22.2,00.0,32.7,25.5,09.1,0000.0,0001.06,0003.44,0000.50
2023-02-04 22:47:00,,0824.0,5.03,0.00,23.8,22.2,00.0,32.7,25.5,09.0,0000.0,0001.05,0003.45,0000.49
2023-02-04 22:48:00,,0823.7,4.98,0.00,23.8,22.2,00.0,32.7,25.5,09.3,0000.0,0001.02,0003.54,0000.49
2023-02-04 22:49:00,,0823.7,4.99,0.00,23.8,22.2,00.0,32.7,25.5,08.9,0000.0,0000.96,0003.37,0000.47
2023-02-04 22:50:00,,0823.7,5.03,0.00,23.8,22.1,00.0,32.7,25.5,08.6,0000.0,0000.90,0003.12,0000.46
2023-02-04 22:51:00,,0823.7,4.95,0.00,23.7,22.1,00.0,32.7,25.4,08.4,0000.0,0000.88,0003.03,0000.45
2023-02-04 22:52:00,,0823.8,5.03,0.00,23.7,22.0,00.0,32.7,25.4,08.7,0000.0,0000.93,0003.11,0000.45
2023-02-04 22:53:00,,0823.8,4.99,0.00,23.7,22.0,00.0,32.6,25.4,08.7,0000.0,0000.97,0003.25,0000.45
2023-02-04 22:54:00,,0823.9,4.99,0.00,23.7,22.0,00.0,32.6,25.3,08.7,0000.0,0000.97,0003.35,0000.44
2023-02-04 22:55:00,,0823.9,5.03,0.00,23.6,22.0,00.0,32.6,25.3,08.7,0000.0,0000.97,0002.87,0000.44
2023-02-04 22:56:00,,0823.8,4.95,0.00,23.6,22.0,00.0,32.6,25.3,08.8,0000.0,0000.97,0002.22,0000.44
2023-02-04 22:57:00,,0823.6,5.03,0.00,23.6,22.0,00.0,32.6,25.3,09.0,0000.0,0000.93,0002.33,0000.44
2023-02-04 22:58:00,,0823.7,4.98,0.00,23.6,22.0,00.0,32.6,25.4,08.6,0000.0,0000.94,0003.66,0000.44
2023-02-04 22:59:00,,0823.7,4.99,0.00,23.6,22.0,00.0,32.6,25.3,09.0,0000.0,0000.98,0004.02,0000.45
